owner,sensor,date,latitude,longitude,vertical_datum,wind_speed,wind_to_direction,wind_speed_of_gust,qcFlag 
TCOON,ioos:station:TCOON:009:1,2016-09-01T00:00:00Z,27.8398,-97.0727,0.0,99.0,-9999.0,99.0,'11144222,99999999,11144222' 
TCOON,ioos:station:TCOON:009:1,2016-09-01T00:06:00Z,27.8398,-97.0727,0.0,99.0,-9999.0,99.0,'11144222,99999999,11144222' 
TCOON,ioos:station:TCOON:009:1,2016-09-01T00:12:00Z,27.8398,-97.0727,0.0,99.0,-9999.0,99.0,'11144222,99999999,11144222' 
TCOON,ioos:station:TCOON:009:1,2016-09-01T00:18:00Z,27.8398,-97.0727,0.0,3.4,24.0,4.2,'1111122,1111122,1111122' 
TCOON,ioos:station:TCOON:009:1,2016-09-01T00:24:00Z,27.8398,-97.0727,0.0,2.5,24.0,4.1,'11111222,11111222,11111222' 
TCOON,ioos:station:TCOON:009:1,2016-09-01T00:30:00Z,27.8398,-97.0727,0.0,2.8,0.0,3.5,'11111222,11111222,11111222' 
TCOON,ioos:station:TCOON:009:1,2016-09-01T00:36:00Z,27.8398,-97.0727,0.0,2.7,9.0,3.1,'11111222,11111222,11111222' 
TCOON,ioos:station:TCOON:009:1,2016-09-01T00:42:00Z,27.8398,-97.0727,0.0,2.1,18.0,3.1,'11111222,11111222,11111222' 
TCOON,ioos:station:TCOON:009:1,2016-09-01T00:48:00Z,27.8398,-97.0727,0.0,0.9,48.0,2.3,'11111222,11111222,11111222' 
TCOON,ioos:station:TCOON:009:1,2016-09-01T00:54:00Z,27.8398,-97.0727,0.0,99.0,-9999.0,99.0,'11144222,99999999,11144222' 
TCOON,ioos:station:TCOON:009:1,2016-09-01T01:00:00Z,27.8398,-97.0727,0.0,99.0,-9999.0,99.0,'11144222,99999999,11144222' 
TCOON,ioos:station:TCOON:009:1,2016-09-01T01:06:00Z,27.8398,-97.0727,0.0,3.0,38.0,3.3,'11111222,11111222,11111222' 
TCOON,ioos:station:TCOON:009:1,2016-09-01T01:12:00Z,27.8398,-97.0727,0.0,1.9,36.0,3.2,'11111222,11111222,11111222' 
TCOON,ioos:station:TCOON:009:1,2016-09-01T01:18:00Z,27.8398,-97.0727,0.0,1.9,36.0,3.2,'1111122,1111122,1111122' 
TCOON,ioos:station:TCOON:009:1,2016-09-01T01:24:00Z,27.8398,-97.0727,0.0,2.6,25.0,3.0,'11111222,11111222,11111222' 
TCOON,ioos:station:TCOON:009:1,2016-09-01T01:30:00Z,27.8398,-97.0727,0.0,2.3,15.0,2.8,'11111222,11111222,11111222' 
TCOON,ioos:station:TCOON:009:1,2016-09-01T01:36:00Z,27.8398,-97.0727,0.0,99.0,-9999.0,99.0,'11144222,99999999,11144222' 
TCOON,ioos:station:TCOON:009:1,2016-09-01T01:42:00Z,27.8398,-97.0727,0.0,99.0,-9999.0,99.0,'11144222,99999999,11144222' 
TCOON,ioos:station:TCOON:009:1,2016-09-01T01:48:00Z,27.8398,-97.0727,0.0,99.0,-9999.0,99.0,'11144222,99999999,11144222' 
TCOON,ioos:station:TCOON:009:1,2016-09-01T01:54:00Z,27.8398,-97.0727,0.0,99.0,-9999.0,99.0,'11144222,99999999,11144222' 
TCOON,ioos:station:TCOON:009:1,2016-09-01T02:00:00Z,27.8398,-97.0727,0.0,99.0,-9999.0,99.0,'11144222,99999999,11144222' 
TCOON,ioos:station:TCOON:009:1,2016-09-01T02:06:00Z,27.8398,-97.0727,0.0,99.0,-9999.0,99.0,'11144222,99999999,11144222' 
TCOON,ioos:station:TCOON:009:1,2016-09-01T02:12:00Z,27.8398,-97.0727,0.0,99.0,-9999.0,99.0,'11144222,99999999,11144222' 
TCOON,ioos:station:TCOON:009:1,2016-09-01T02:18:00Z,27.8398,-97.0727,0.0,1.9,330.0,2.8,'1111122,1111122,1111122' 
TCOON,ioos:station:TCOON:009:1,2016-09-01T02:24:00Z,27.8398,-97.0727,0.0,2.0,325.0,2.7,'11111222,11111222,11111222' 
TCOON,ioos:station:TCOON:009:1,2016-09-01T02:30:00Z,27.8398,-97.0727,0.0,2.2,329.0,3.4,'11111222,11111222,11111222' 
TCOON,ioos:station:TCOON:009:1,2016-09-01T02:36:00Z,27.8398,-97.0727,0.0,2.1,335.0,2.6,'11111222,11111222,11111222' 
TCOON,ioos:station:TCOON:009:1,2016-09-01T02:42:00Z,27.8398,-97.0727,0.0,1.3,351.0,2.6,'11111222,11111222,11111222' 
TCOON,ioos:station:TCOON:009:1,2016-09-01T02:48:00Z,27.8398,-97.0727,0.0,1.2,9.0,1.5,'11111222,11111222,11111222' 
TCOON,ioos:station:TCOON:009:1,2016-09-01T02:54:00Z,27.8398,-97.0727,0.0,1.8,343.0,2.0,'11111222,11111222,11111222' 
TCOON,ioos:station:TCOON:009:1,2016-09-01T03:00:00Z,27.8398,-97.0727,0.0,1.4,3.0,1.9,'11111222,11111222,11111222' 
TCOON,ioos:station:TCOON:009:1,2016-09-01T03:06:00Z,27.8398,-97.0727,0.0,1.6,347.0,1.8,'11111222,11111222,11111222' 
TCOON,ioos:station:TCOON:009:1,2016-09-01T03:12:00Z,27.8398,-97.0727,0.0,1.9,6.0,2.3,'11111222,11111222,11111222' 
TCOON,ioos:station:TCOON:009:1,2016-09-01T03:18:00Z,27.8398,-97.0727,0.0,1.9,6.0,2.3,'1111122,1111122,1111122' 
TCOON,ioos:station:TCOON:009:1,2016-09-01T03:24:00Z,27.8398,-97.0727,0.0,1.8,2.0,2.4,'11111222,11111222,11111222' 
TCOON,ioos:station:TCOON:009:1,2016-09-01T03:30:00Z,27.8398,-97.0727,0.0,1.8,5.0,2.3,'11111222,11111222,11111222' 
TCOON,ioos:station:TCOON:009:1,2016-09-01T03:36:00Z,27.8398,-97.0727,0.0,2.2,4.0,2.5,'11111222,11111222,11111222' 
TCOON,ioos:station:TCOON:009:1,2016-09-01T03:42:00Z,27.8398,-97.0727,0.0,2.2,7.0,2.6,'11111222,11111222,11111222' 
TCOON,ioos:station:TCOON:009:1,2016-09-01T03:48:00Z,27.8398,-97.0727,0.0,1.7,3.0,2.5,'11111222,11111222,11111222' 
TCOON,ioos:station:TCOON:009:1,2016-09-01T03:54:00Z,27.8398,-97.0727,0.0,1.5,9.0,2.0,'11111222,11111222,11111222' 
TCOON,ioos:station:TCOON:009:1,2016-09-01T04:00:00Z,27.8398,-97.0727,0.0,1.5,1.0,1.9,'11111222,11111222,11111222' 
TCOON,ioos:station:TCOON:009:1,2016-09-01T04:06:00Z,27.8398,-97.0727,0.0,1.3,344.0,1.9,'11111222,11111222,11111222' 
TCOON,ioos:station:TCOON:009:1,2016-09-01T04:12:00Z,27.8398,-97.0727,0.0,1.4,351.0,1.7,'11111222,11111222,11111222' 
TCOON,ioos:station:TCOON:009:1,2016-09-01T04:18:00Z,27.8398,-97.0727,0.0,1.4,351.0,1.7,'1111122,1111122,1111122' 
TCOON,ioos:station:TCOON:009:1,2016-09-01T04:24:00Z,27.8398,-97.0727,0.0,1.3,1.0,1.6,'11111222,11111222,11111222' 
TCOON,ioos:station:TCOON:009:1,2016-09-01T04:30:00Z,27.8398,-97.0727,0.0,1.3,5.0,1.6,'11111222,11111222,11111222' 
TCOON,ioos:station:TCOON:009:1,2016-09-01T04:36:00Z,27.8398,-97.0727,0.0,1.5,355.0,1.9,'11111222,11111222,11111222' 
TCOON,ioos:station:TCOON:009:1,2016-09-01T04:42:00Z,27.8398,-97.0727,0.0,1.4,1.0,1.9,'11111222,11111222,11111222' 
TCOON,ioos:station:TCOON:009:1,2016-09-01T04:48:00Z,27.8398,-97.0727,0.0,1.7,3.0,2.0,'11111222,11111222,11111222' 
TCOON,ioos:station:TCOON:009:1,2016-09-01T04:54:00Z,27.8398,-97.0727,0.0,1.7,6.0,2.1,'11111222,11111222,11111222' 
TCOON,ioos:station:TCOON:009:1,2016-09-01T05:00:00Z,27.8398,-97.0727,0.0,1.6,5.0,2.3,'11111222,11111222,11111222' 
TCOON,ioos:station:TCOON:009:1,2016-09-01T05:06:00Z,27.8398,-97.0727,0.0,1.7,347.0,2.1,'11111222,11111222,11111222' 
TCOON,ioos:station:TCOON:009:1,2016-09-01T05:12:00Z,27.8398,-97.0727,0.0,1.7,2.0,2.5,'11111222,11111222,11111222' 
TCOON,ioos:station:TCOON:009:1,2016-09-01T05:18:00Z,27.8398,-97.0727,0.0,1.7,2.0,2.5,'1111122,1111122,1111122' 
TCOON,ioos:station:TCOON:009:1,2016-09-01T05:24:00Z,27.8398,-97.0727,0.0,2.0,1.0,2.4,'11111222,11111222,11111222' 
TCOON,ioos:station:TCOON:009:1,2016-09-01T05:30:00Z,27.8398,-97.0727,0.0,1.7,1.0,2.3,'11111222,11111222,11111222' 
TCOON,ioos:station:TCOON:009:1,2016-09-01T05:36:00Z,27.8398,-97.0727,0.0,1.9,356.0,2.4,'11111222,11111222,11111222' 
TCOON,ioos:station:TCOON:009:1,2016-09-01T05:42:00Z,27.8398,-97.0727,0.0,2.0,352.0,2.4,'11111222,11111222,11111222' 
TCOON,ioos:station:TCOON:009:1,2016-09-01T05:48:00Z,27.8398,-97.0727,0.0,2.0,357.0,2.5,'11111222,11111222,11111222' 
TCOON,ioos:station:TCOON:009:1,2016-09-01T05:54:00Z,27.8398,-97.0727,0.0,1.8,350.0,2.2,'11111222,11111222,11111222' 
TCOON,ioos:station:TCOON:009:1,2016-09-01T06:00:00Z,27.8398,-97.0727,0.0,2.0,353.0,2.5,'11111222,11111222,11111222' 
TCOON,ioos:station:TCOON:009:1,2016-09-01T06:06:00Z,27.8398,-97.0727,0.0,1.7,348.0,2.4,'11111222,11111222,11111222' 
TCOON,ioos:station:TCOON:009:1,2016-09-01T06:12:00Z,27.8398,-97.0727,0.0,2.0,350.0,2.7,'11111222,11111222,11111222' 
TCOON,ioos:station:TCOON:009:1,2016-09-01T06:18:00Z,27.8398,-97.0727,0.0,2.0,350.0,2.7,'1111122,1111122,1111122' 
TCOON,ioos:station:TCOON:009:1,2016-09-01T06:24:00Z,27.8398,-97.0727,0.0,2.5,346.0,3.0,'11111222,11111222,11111222' 
TCOON,ioos:station:TCOON:009:1,2016-09-01T06:30:00Z,27.8398,-97.0727,0.0,2.7,345.0,3.2,'11111222,11111222,11111222' 
TCOON,ioos:station:TCOON:009:1,2016-09-01T06:36:00Z,27.8398,-97.0727,0.0,2.0,344.0,3.0,'11111222,11111222,11111222' 
TCOON,ioos:station:TCOON:009:1,2016-09-01T06:42:00Z,27.8398,-97.0727,0.0,2.2,349.0,2.8,'11111222,11111222,11111222' 
TCOON,ioos:station:TCOON:009:1,2016-09-01T06:48:00Z,27.8398,-97.0727,0.0,2.4,351.0,3.0,'11111222,11111222,11111222' 
TCOON,ioos:station:TCOON:009:1,2016-09-01T06:54:00Z,27.8398,-97.0727,0.0,2.9,346.0,3.3,'11111222,11111222,11111222' 
TCOON,ioos:station:TCOON:009:1,2016-09-01T07:00:00Z,27.8398,-97.0727,0.0,2.3,337.0,3.2,'11111222,11111222,11111222' 
TCOON,ioos:station:TCOON:009:1,2016-09-01T07:06:00Z,27.8398,-97.0727,0.0,2.6,345.0,3.0,'11111222,11111222,11111222' 
TCOON,ioos:station:TCOON:009:1,2016-09-01T07:12:00Z,27.8398,-97.0727,0.0,2.1,350.0,2.6,'11111222,11111222,11111222' 
TCOON,ioos:station:TCOON:009:1,2016-09-01T07:18:00Z,27.8398,-97.0727,0.0,2.1,350.0,2.6,'1111122,1111122,1111122' 
TCOON,ioos:station:TCOON:009:1,2016-09-01T07:24:00Z,27.8398,-97.0727,0.0,2.5,350.0,3.1,'11111222,11111222,11111222' 
TCOON,ioos:station:TCOON:009:1,2016-09-01T07:30:00Z,27.8398,-97.0727,0.0,2.6,355.0,3.0,'11111222,11111222,11111222' 
TCOON,ioos:station:TCOON:009:1,2016-09-01T07:36:00Z,27.8398,-97.0727,0.0,2.8,342.0,3.8,'11111222,11111222,11111222' 
TCOON,ioos:station:TCOON:009:1,2016-09-01T07:42:00Z,27.8398,-97.0727,0.0,3.1,344.0,3.9,'11111222,11111222,11111222' 
TCOON,ioos:station:TCOON:009:1,2016-09-01T07:48:00Z,27.8398,-97.0727,0.0,2.4,358.0,3.5,'11111222,11111222,11111222' 
TCOON,ioos:station:TCOON:009:1,2016-09-01T07:54:00Z,27.8398,-97.0727,0.0,2.8,354.0,3.4,'11111222,11111222,11111222' 
TCOON,ioos:station:TCOON:009:1,2016-09-01T08:00:00Z,27.8398,-97.0727,0.0,2.3,352.0,3.1,'11111222,11111222,11111222' 
TCOON,ioos:station:TCOON:009:1,2016-09-01T08:06:00Z,27.8398,-97.0727,0.0,2.0,351.0,2.8,'11111222,11111222,11111222' 
TCOON,ioos:station:TCOON:009:1,2016-09-01T08:12:00Z,27.8398,-97.0727,0.0,2.1,349.0,2.6,'11111222,11111222,11111222' 
TCOON,ioos:station:TCOON:009:1,2016-09-01T08:18:00Z,27.8398,-97.0727,0.0,2.1,349.0,2.6,'1111122,1111122,1111122' 
TCOON,ioos:station:TCOON:009:1,2016-09-01T08:24:00Z,27.8398,-97.0727,0.0,2.8,343.0,3.8,'11111222,11111222,11111222' 
TCOON,ioos:station:TCOON:009:1,2016-09-01T08:30:00Z,27.8398,-97.0727,0.0,2.9,353.0,3.6,'11111222,11111222,11111222' 
TCOON,ioos:station:TCOON:009:1,2016-09-01T08:36:00Z,27.8398,-97.0727,0.0,3.0,0.0,3.6,'11111222,11111222,11111222' 
TCOON,ioos:station:TCOON:009:1,2016-09-01T08:42:00Z,27.8398,-97.0727,0.0,2.9,4.0,3.5,'11111222,11111222,11111222' 
TCOON,ioos:station:TCOON:009:1,2016-09-01T08:48:00Z,27.8398,-97.0727,0.0,2.5,357.0,3.0,'11111222,11111222,11111222' 
TCOON,ioos:station:TCOON:009:1,2016-09-01T08:54:00Z,27.8398,-97.0727,0.0,2.4,352.0,2.9,'11111222,11111222,11111222' 
TCOON,ioos:station:TCOON:009:1,2016-09-01T09:00:00Z,27.8398,-97.0727,0.0,2.3,360.0,2.7,'11111222,11144222,11111222' 
TCOON,ioos:station:TCOON:009:1,2016-09-01T09:06:00Z,27.8398,-97.0727,0.0,2.5,359.0,3.0,'11111222,11111222,11111222' 
TCOON,ioos:station:TCOON:009:1,2016-09-01T09:12:00Z,27.8398,-97.0727,0.0,2.3,347.0,2.7,'11111222,11111222,11111222' 
TCOON,ioos:station:TCOON:009:1,2016-09-01T09:18:00Z,27.8398,-97.0727,0.0,2.3,347.0,2.7,'1111122,1111122,1111122' 
TCOON,ioos:station:TCOON:009:1,2016-09-01T09:24:00Z,27.8398,-97.0727,0.0,1.4,351.0,2.1,'11111222,11111222,11111222' 
TCOON,ioos:station:TCOON:009:1,2016-09-01T09:30:00Z,27.8398,-97.0727,0.0,1.7,353.0,2.1,'11111222,11111222,11111222' 
TCOON,ioos:station:TCOON:009:1,2016-09-01T09:36:00Z,27.8398,-97.0727,0.0,1.3,345.0,2.0,'11111222,11111222,11111222' 
TCOON,ioos:station:TCOON:009:1,2016-09-01T09:42:00Z,27.8398,-97.0727,0.0,1.7,343.0,1.9,'11111222,11111222,11111222' 
TCOON,ioos:station:TCOON:009:1,2016-09-01T09:48:00Z,27.8398,-97.0727,0.0,1.4,350.0,2.0,'11111222,11111222,11111222' 
TCOON,ioos:station:TCOON:009:1,2016-09-01T09:54:00Z,27.8398,-97.0727,0.0,1.7,341.0,2.1,'11111222,11111222,11111222' 
TCOON,ioos:station:TCOON:009:1,2016-09-01T10:00:00Z,27.8398,-97.0727,0.0,2.1,349.0,2.6,'11111222,11111222,11111222' 
TCOON,ioos:station:TCOON:009:1,2016-09-01T10:06:00Z,27.8398,-97.0727,0.0,1.8,353.0,2.5,'11111222,11111222,11111222' 
TCOON,ioos:station:TCOON:009:1,2016-09-01T10:12:00Z,27.8398,-97.0727,0.0,1.5,7.0,2.0,'11111222,11111222,11111222' 
TCOON,ioos:station:TCOON:009:1,2016-09-01T10:18:00Z,27.8398,-97.0727,0.0,1.5,7.0,2.0,'1111122,1111122,1111122' 
TCOON,ioos:station:TCOON:009:1,2016-09-01T10:24:00Z,27.8398,-97.0727,0.0,2.2,2.0,2.7,'11111222,11111222,11111222' 
TCOON,ioos:station:TCOON:009:1,2016-09-01T10:30:00Z,27.8398,-97.0727,0.0,2.4,352.0,3.1,'11111222,11111222,11111222' 
TCOON,ioos:station:TCOON:009:1,2016-09-01T10:36:00Z,27.8398,-97.0727,0.0,2.5,355.0,3.1,'11111222,11111222,11111222' 
TCOON,ioos:station:TCOON:009:1,2016-09-01T10:42:00Z,27.8398,-97.0727,0.0,2.0,355.0,2.8,'11111222,11111222,11111222' 
TCOON,ioos:station:TCOON:009:1,2016-09-01T10:48:00Z,27.8398,-97.0727,0.0,2.2,343.0,2.7,'11111222,11111222,11111222' 
TCOON,ioos:station:TCOON:009:1,2016-09-01T10:54:00Z,27.8398,-97.0727,0.0,2.1,347.0,2.7,'11111222,11111222,11111222' 
TCOON,ioos:station:TCOON:009:1,2016-09-01T11:00:00Z,27.8398,-97.0727,0.0,2.0,353.0,2.4,'11111222,11111222,11111222' 
TCOON,ioos:station:TCOON:009:1,2016-09-01T11:06:00Z,27.8398,-97.0727,0.0,1.6,349.0,2.3,'11111222,11111222,11111222' 
TCOON,ioos:station:TCOON:009:1,2016-09-01T11:12:00Z,27.8398,-97.0727,0.0,2.1,341.0,2.5,'11111222,11111222,11111222' 
TCOON,ioos:station:TCOON:009:1,2016-09-01T11:18:00Z,27.8398,-97.0727,0.0,2.1,341.0,2.5,'1111122,1111122,1111122' 
TCOON,ioos:station:TCOON:009:1,2016-09-01T11:24:00Z,27.8398,-97.0727,0.0,2.1,341.0,2.4,'11111222,11111222,11111222' 
TCOON,ioos:station:TCOON:009:1,2016-09-01T11:30:00Z,27.8398,-97.0727,0.0,2.4,343.0,2.8,'11111222,11111222,11111222' 
TCOON,ioos:station:TCOON:009:1,2016-09-01T11:36:00Z,27.8398,-97.0727,0.0,1.8,348.0,2.6,'11111222,11111222,11111222' 
TCOON,ioos:station:TCOON:009:1,2016-09-01T11:42:00Z,27.8398,-97.0727,0.0,2.2,341.0,2.5,'11111222,11111222,11111222' 
TCOON,ioos:station:TCOON:009:1,2016-09-01T11:48:00Z,27.8398,-97.0727,0.0,2.0,346.0,2.6,'11111222,11111222,11111222' 
TCOON,ioos:station:TCOON:009:1,2016-09-01T11:54:00Z,27.8398,-97.0727,0.0,2.4,346.0,2.9,'11111222,11111222,11111222' 
TCOON,ioos:station:TCOON:009:1,2016-09-01T12:00:00Z,27.8398,-97.0727,0.0,2.7,343.0,3.3,'11111222,11111222,11111222' 
TCOON,ioos:station:TCOON:009:1,2016-09-01T12:06:00Z,27.8398,-97.0727,0.0,2.7,345.0,3.3,'11111222,11111222,11111222' 
TCOON,ioos:station:TCOON:009:1,2016-09-01T12:12:00Z,27.8398,-97.0727,0.0,2.7,340.0,3.1,'11111222,11111222,11111222' 
TCOON,ioos:station:TCOON:009:1,2016-09-01T12:18:00Z,27.8398,-97.0727,0.0,2.7,340.0,3.1,'1111122,1111122,1111122' 
TCOON,ioos:station:TCOON:009:1,2016-09-01T12:24:00Z,27.8398,-97.0727,0.0,2.3,344.0,3.1,'11111222,11111222,11111222' 
TCOON,ioos:station:TCOON:009:1,2016-09-01T12:30:00Z,27.8398,-97.0727,0.0,2.9,343.0,3.5,'11111222,11111222,11111222' 
TCOON,ioos:station:TCOON:009:1,2016-09-01T12:36:00Z,27.8398,-97.0727,0.0,2.7,339.0,3.2,'11111222,11111222,11111222' 
TCOON,ioos:station:TCOON:009:1,2016-09-01T12:42:00Z,27.8398,-97.0727,0.0,2.6,350.0,3.6,'11111222,11111222,11111222' 
TCOON,ioos:station:TCOON:009:1,2016-09-01T12:48:00Z,27.8398,-97.0727,0.0,2.6,346.0,3.0,'11111222,11111222,11111222' 
TCOON,ioos:station:TCOON:009:1,2016-09-01T12:54:00Z,27.8398,-97.0727,0.0,2.8,348.0,3.7,'11111222,11111222,11111222' 
TCOON,ioos:station:TCOON:009:1,2016-09-01T13:00:00Z,27.8398,-97.0727,0.0,3.3,355.0,4.0,'11111222,11111222,11111222' 
TCOON,ioos:station:TCOON:009:1,2016-09-01T13:06:00Z,27.8398,-97.0727,0.0,2.7,343.0,3.7,'11111222,11111222,11111222' 
TCOON,ioos:station:TCOON:009:1,2016-09-01T13:12:00Z,27.8398,-97.0727,0.0,3.7,350.0,4.6,'11111222,11111222,11111222' 
TCOON,ioos:station:TCOON:009:1,2016-09-01T13:18:00Z,27.8398,-97.0727,0.0,3.7,350.0,4.6,'1111122,1111122,1111122' 
TCOON,ioos:station:TCOON:009:1,2016-09-01T13:24:00Z,27.8398,-97.0727,0.0,3.7,2.0,4.2,'11111222,11111222,11111222' 
TCOON,ioos:station:TCOON:009:1,2016-09-01T13:30:00Z,27.8398,-97.0727,0.0,3.3,353.0,4.7,'11111222,11111222,11111222' 
TCOON,ioos:station:TCOON:009:1,2016-09-01T13:36:00Z,27.8398,-97.0727,0.0,3.7,359.0,4.5,'11111222,11111222,11111222' 
TCOON,ioos:station:TCOON:009:1,2016-09-01T13:42:00Z,27.8398,-97.0727,0.0,3.7,4.0,4.7,'11111222,11111222,11111222' 
TCOON,ioos:station:TCOON:009:1,2016-09-01T13:48:00Z,27.8398,-97.0727,0.0,4.0,358.0,5.0,'11111222,11111222,11111222' 
TCOON,ioos:station:TCOON:009:1,2016-09-01T13:54:00Z,27.8398,-97.0727,0.0,3.6,355.0,5.0,'11111222,11111222,11111222' 
TCOON,ioos:station:TCOON:009:1,2016-09-01T14:00:00Z,27.8398,-97.0727,0.0,3.7,6.0,4.5,'11111222,11111222,11111222' 
TCOON,ioos:station:TCOON:009:1,2016-09-01T14:06:00Z,27.8398,-97.0727,0.0,3.8,5.0,4.7,'11111222,11111222,11111222' 
TCOON,ioos:station:TCOON:009:1,2016-09-01T14:12:00Z,27.8398,-97.0727,0.0,3.5,8.0,4.5,'11111222,11111222,11111222' 
TCOON,ioos:station:TCOON:009:1,2016-09-01T14:18:00Z,27.8398,-97.0727,0.0,3.7,6.0,4.5,'11111222,11111222,11111222' 
TCOON,ioos:station:TCOON:009:1,2016-09-01T14:24:00Z,27.8398,-97.0727,0.0,3.1,355.0,4.4,'11111222,11111222,11111222' 
TCOON,ioos:station:TCOON:009:1,2016-09-01T14:30:00Z,27.8398,-97.0727,0.0,3.4,358.0,4.3,'11111222,11111222,11111222' 
TCOON,ioos:station:TCOON:009:1,2016-09-01T14:36:00Z,27.8398,-97.0727,0.0,3.7,8.0,4.6,'11111222,11111222,11111222' 
TCOON,ioos:station:TCOON:009:1,2016-09-01T14:42:00Z,27.8398,-97.0727,0.0,3.4,359.0,4.4,'11111222,11111222,11111222' 
TCOON,ioos:station:TCOON:009:1,2016-09-01T14:48:00Z,27.8398,-97.0727,0.0,3.6,1.0,4.2,'11111222,11111222,11111222' 
TCOON,ioos:station:TCOON:009:1,2016-09-01T14:54:00Z,27.8398,-97.0727,0.0,3.3,8.0,5.3,'11111222,11111222,11111222' 
TCOON,ioos:station:TCOON:009:1,2016-09-01T15:00:00Z,27.8398,-97.0727,0.0,4.8,20.0,5.7,'11111222,11111222,11111222' 
TCOON,ioos:station:TCOON:009:1,2016-09-01T15:06:00Z,27.8398,-97.0727,0.0,4.8,22.0,5.8,'11111222,11111222,11111222' 
TCOON,ioos:station:TCOON:009:1,2016-09-01T15:12:00Z,27.8398,-97.0727,0.0,4.9,17.0,6.4,'11111222,11111222,11111222' 
TCOON,ioos:station:TCOON:009:1,2016-09-01T15:18:00Z,27.8398,-97.0727,0.0,4.5,11.0,6.6,'11111222,11111222,11111222' 
TCOON,ioos:station:TCOON:009:1,2016-09-01T15:24:00Z,27.8398,-97.0727,0.0,5.2,24.0,6.0,'11111222,11111222,11111222' 
TCOON,ioos:station:TCOON:009:1,2016-09-01T15:30:00Z,27.8398,-97.0727,0.0,4.7,18.0,6.1,'11111222,11111222,11111222' 
TCOON,ioos:station:TCOON:009:1,2016-09-01T15:36:00Z,27.8398,-97.0727,0.0,4.4,18.0,5.8,'11111222,11111222,11111222' 
TCOON,ioos:station:TCOON:009:1,2016-09-01T15:42:00Z,27.8398,-97.0727,0.0,4.8,11.0,5.7,'11111222,11111222,11111222' 
TCOON,ioos:station:TCOON:009:1,2016-09-01T15:48:00Z,27.8398,-97.0727,0.0,4.2,34.0,5.4,'11111222,11111222,11111222' 
TCOON,ioos:station:TCOON:009:1,2016-09-01T15:54:00Z,27.8398,-97.0727,0.0,4.6,30.0,6.0,'11111222,11111222,11111222' 
TCOON,ioos:station:TCOON:009:1,2016-09-01T16:00:00Z,27.8398,-97.0727,0.0,4.4,37.0,5.1,'11111222,11111222,11111222' 
TCOON,ioos:station:TCOON:009:1,2016-09-01T16:06:00Z,27.8398,-97.0727,0.0,4.3,32.0,5.7,'11111222,11111222,11111222' 
TCOON,ioos:station:TCOON:009:1,2016-09-01T16:12:00Z,27.8398,-97.0727,0.0,4.0,19.0,5.2,'11111222,11111222,11111222' 
TCOON,ioos:station:TCOON:009:1,2016-09-01T16:18:00Z,27.8398,-97.0727,0.0,4.6,22.0,5.5,'11111222,11111222,11111222' 
TCOON,ioos:station:TCOON:009:1,2016-09-01T16:24:00Z,27.8398,-97.0727,0.0,4.3,14.0,5.4,'11111222,11111222,11111222' 
TCOON,ioos:station:TCOON:009:1,2016-09-01T16:30:00Z,27.8398,-97.0727,0.0,4.3,9.0,5.5,'11111222,11111222,11111222' 
TCOON,ioos:station:TCOON:009:1,2016-09-01T16:36:00Z,27.8398,-97.0727,0.0,4.0,9.0,5.9,'11111222,11111222,11111222' 
TCOON,ioos:station:TCOON:009:1,2016-09-01T16:42:00Z,27.8398,-97.0727,0.0,4.0,21.0,5.1,'11111222,11111222,11111222' 
TCOON,ioos:station:TCOON:009:1,2016-09-01T16:48:00Z,27.8398,-97.0727,0.0,3.8,15.0,5.4,'11111222,11111222,11111222' 
TCOON,ioos:station:TCOON:009:1,2016-09-01T16:54:00Z,27.8398,-97.0727,0.0,4.3,14.0,5.2,'11111222,11111222,11111222' 
TCOON,ioos:station:TCOON:009:1,2016-09-01T17:00:00Z,27.8398,-97.0727,0.0,3.9,24.0,5.0,'11111222,11111222,11111222' 
TCOON,ioos:station:TCOON:009:1,2016-09-01T17:06:00Z,27.8398,-97.0727,0.0,3.9,16.0,5.4,'11111222,11111222,11111222' 
TCOON,ioos:station:TCOON:009:1,2016-09-01T17:12:00Z,27.8398,-97.0727,0.0,4.2,25.0,5.2,'11111222,11111222,11111222' 
TCOON,ioos:station:TCOON:009:1,2016-09-01T17:18:00Z,27.8398,-97.0727,0.0,4.8,20.0,5.8,'11111222,11111222,11111222' 
TCOON,ioos:station:TCOON:009:1,2016-09-01T17:24:00Z,27.8398,-97.0727,0.0,4.7,4.0,5.8,'11111222,11111222,11111222' 
TCOON,ioos:station:TCOON:009:1,2016-09-01T17:30:00Z,27.8398,-97.0727,0.0,4.6,15.0,6.2,'11111222,11111222,11111222' 
TCOON,ioos:station:TCOON:009:1,2016-09-01T17:36:00Z,27.8398,-97.0727,0.0,4.2,11.0,5.3,'11111222,11111222,11111222' 
TCOON,ioos:station:TCOON:009:1,2016-09-01T17:42:00Z,27.8398,-97.0727,0.0,4.0,17.0,5.0,'11111222,11111222,11111222' 
TCOON,ioos:station:TCOON:009:1,2016-09-01T17:48:00Z,27.8398,-97.0727,0.0,3.7,53.0,5.2,'11111222,11111222,11111222' 
TCOON,ioos:station:TCOON:009:1,2016-09-01T17:54:00Z,27.8398,-97.0727,0.0,3.7,46.0,5.1,'11111222,11111222,11111222' 
TCOON,ioos:station:TCOON:009:1,2016-09-01T18:00:00Z,27.8398,-97.0727,0.0,3.3,33.0,5.2,'11111222,11111222,11111222' 
TCOON,ioos:station:TCOON:009:1,2016-09-01T18:06:00Z,27.8398,-97.0727,0.0,3.4,62.0,4.5,'11111222,11111222,11111222' 
TCOON,ioos:station:TCOON:009:1,2016-09-01T18:12:00Z,27.8398,-97.0727,0.0,3.7,58.0,4.4,'11111222,11111222,11111222' 
TCOON,ioos:station:TCOON:009:1,2016-09-01T18:18:00Z,27.8398,-97.0727,0.0,4.2,69.0,5.0,'11111222,11111222,11111222' 
TCOON,ioos:station:TCOON:009:1,2016-09-01T18:24:00Z,27.8398,-97.0727,0.0,4.3,75.0,5.4,'11111222,11111222,11111222' 
TCOON,ioos:station:TCOON:009:1,2016-09-01T18:30:00Z,27.8398,-97.0727,0.0,4.5,77.0,5.4,'11111222,11111222,11111222' 
TCOON,ioos:station:TCOON:009:1,2016-09-01T18:36:00Z,27.8398,-97.0727,0.0,4.3,59.0,5.9,'11111222,11111222,11111222' 
TCOON,ioos:station:TCOON:009:1,2016-09-01T18:42:00Z,27.8398,-97.0727,0.0,4.3,70.0,5.9,'11111222,11111222,11111222' 
TCOON,ioos:station:TCOON:009:1,2016-09-01T18:48:00Z,27.8398,-97.0727,0.0,2.9,86.0,5.4,'11111222,11111222,11111222' 
TCOON,ioos:station:TCOON:009:1,2016-09-01T18:54:00Z,27.8398,-97.0727,0.0,4.3,83.0,5.4,'11111222,11111222,11111222' 
TCOON,ioos:station:TCOON:009:1,2016-09-01T19:00:00Z,27.8398,-97.0727,0.0,3.6,86.0,4.9,'11111222,11111222,11111222' 
TCOON,ioos:station:TCOON:009:1,2016-09-01T19:06:00Z,27.8398,-97.0727,0.0,3.4,89.0,4.7,'11111222,11111222,11111222' 
TCOON,ioos:station:TCOON:009:1,2016-09-01T19:12:00Z,27.8398,-97.0727,0.0,3.3,87.0,5.0,'11111222,11111222,11111222' 
TCOON,ioos:station:TCOON:009:1,2016-09-01T19:18:00Z,27.8398,-97.0727,0.0,3.5,89.0,5.0,'11111222,11111222,11111222' 
TCOON,ioos:station:TCOON:009:1,2016-09-01T19:24:00Z,27.8398,-97.0727,0.0,2.8,85.0,5.0,'11111222,11111222,11111222' 
TCOON,ioos:station:TCOON:009:1,2016-09-01T19:30:00Z,27.8398,-97.0727,0.0,3.5,89.0,4.4,'11111222,11111222,11111222' 
TCOON,ioos:station:TCOON:009:1,2016-09-01T19:36:00Z,27.8398,-97.0727,0.0,2.7,77.0,3.9,'11111222,11111222,11111222' 
TCOON,ioos:station:TCOON:009:1,2016-09-01T19:42:00Z,27.8398,-97.0727,0.0,3.4,79.0,4.4,'11111222,11111222,11111222' 
TCOON,ioos:station:TCOON:009:1,2016-09-01T19:48:00Z,27.8398,-97.0727,0.0,3.5,70.0,4.0,'11111222,11111222,11111222' 
TCOON,ioos:station:TCOON:009:1,2016-09-01T19:54:00Z,27.8398,-97.0727,0.0,2.8,81.0,3.5,'11111222,11111222,11111222' 
TCOON,ioos:station:TCOON:009:1,2016-09-01T20:00:00Z,27.8398,-97.0727,0.0,2.6,96.0,3.9,'11111222,11111222,11111222' 
TCOON,ioos:station:TCOON:009:1,2016-09-01T20:06:00Z,27.8398,-97.0727,0.0,2.8,83.0,3.6,'11111222,11111222,11111222' 
TCOON,ioos:station:TCOON:009:1,2016-09-01T20:12:00Z,27.8398,-97.0727,0.0,3.2,82.0,4.5,'11111222,11111222,11111222' 
TCOON,ioos:station:TCOON:009:1,2016-09-01T20:18:00Z,27.8398,-97.0727,0.0,3.2,82.0,4.5,'1111122,1111122,1111122' 
TCOON,ioos:station:TCOON:009:1,2016-09-01T20:24:00Z,27.8398,-97.0727,0.0,3.4,88.0,4.7,'11111222,11111222,11111222' 